Tracking 22441 objects as of 1-Mar-2021
HD Live streaming from Space Station
objects crossing your sky now

COSMOS 1375 DEB

Track COSMOS 1375 DEB now!
10-day predictions


NORAD ID: 17807
Int'l Code: 1982-055AZ
Perigee: 931.3 km
Apogee: 1,018.0 km
Inclination: 65.8 °
Period: 104.4 minutes
Semi major axis: 7345 km
RCS: 0.033 m2 (small)
Launch date: June 6, 1982
Source: Commonwealth of Independent States (former USSR) (CIS)
Launch site: PLESETSK MISSILE AND SPACE COMPLEX (PKMTR)

Note: This is SATELLITE DEBRIS
aabbcc
Your satellite tracking list
Your tracking list is empty




NASA's NSSDC Master Catalog

Two Line Element Set (TLE):
1 17807U 82055AZ  21060.30248722  .00000152  00000-0  22585-3 0  9993
2 17807  65.8300 245.3484 0059037 209.5159 209.0019 13.78986149772588
Source of the keplerian elements: AFSPC